Regional Weather Roundup
Issued by NWS

Home | Current Version | Previous Version | Text Only | Print | Product List | Glossary Off
Versions: 1 2 3 4 5 6 7 8 9 10 11 12 13 14 15 16 17 18 19 20 21 22 23 24 25 26 27 28 29 30 31 32 33 34 35 36 37 38 39 40 41 42 43 44 45 46 47 48 49 50

373
ASUS43 KLOT 270504
RWRIL

ILLINOIS REGIONAL WEATHER ROUNDUP
NATIONAL WEATHER SERVICE CHICAGO/ROMEOVILLE IL
1200 AM CDT SAT MAY 27 2017

NOTE: "FAIR" INDICATES FEW OR NO CLOUDS BELOW 12,000 FEET WITH NO
SIGNIFICANT WEATHER AND/OR OBSTRUCTIONS TO VISIBILITY.

* THESE STATIONS ARE NOT UNDER NWS QUALITY CONTROL. THEY ALSO MAY NOT
  REPORT WEATHER SUCH AS PRECIPITATION OR FOG.

ILZ001-002-007-009-015-016-024-270600-
NORTHWEST ILLINOIS

CITY           SKY/WX    TMP DP  RH WIND       PRES   REMARKS
MOLINE         CLOUDY    62  57  83 NE6       29.87R
STERLING*      MOCLDY    57  56  96 CALM      29.88R
SAVANNA*       MOCLDY    56  55  97 CALM      29.88S
$$

ILZ003-004-008-010-011-017-018-270600-
NORTH CENTRAL ILLINOIS

CITY           SKY/WX    TMP DP  RH WIND       PRES   REMARKS
ROCKFORD       CLEAR     56  54  93 NE3       29.88R
FREEPORT*      CLEAR     52  52  98 CALM      29.89S FOG
ROCHELLE*      CLEAR     55  54  96 NE5       29.86S
DE KALB*       MOCLDY    55  54  97 NE6       29.87S
PERU*          CLEAR     57  55  94 NE6       29.86R FOG
$$

ILZ005-006-012>014-019>023-270600-
NORTHEAST ILLINOIS

CITY           SKY/WX    TMP DP  RH WIND       PRES   REMARKS
CHICAGO-OHARE  CLOUDY    57  53  86 E5        29.85S
CHICAGO-MIDWAY CLOUDY    57  55  93 NE8       29.85R
AURORA         CLOUDY    58  56  93 NE7       29.86R FOG
LANSING*       CLOUDY    56  55  98 N5        29.85R
JOLIET*        CLOUDY    60  58  93 NE5       29.84S
WAUKEGAN       MOCLDY    52  52 100 CALM      29.87R
DUPAGE AIRPORT CLOUDY    56  56 100 NE6       29.85S FOG
KANKAKEE*      CLOUDY    59  58  95 CALM      29.84R
WHEELING       CLOUDY    55  54  96 CALM      29.88R
MORRIS*        CLEAR     57  56  94 CALM      29.83S FOG
ROMEOVILLE*    CLOUDY    57  57 100 NE9       29.85R FOG
$$

LMZ740>746-270600-
SOUTHERN LAKE MICHIGAN

STATION/POSITION SKY/WX   TEMP    WIND        PRES    VSBY  WAVE
                          AIR SEA DIR/SP/G                  HT/PER
                          (F)     (DEG/KT/KT) (MB)    (MI)  (FT/S)
SOUTHERN BUOY              49 46   50/  6/  6 1011.5          0
WILMETTE HARBOR            50 51                N/A           1/ 3
HARRISON CRIB              54      40/  4/  5   N/A
BURNHAM HARBOR             54      20/  5/  8   N/A
CALUMET HARBOR             54      40/  5/  8 1010.4R
BURNS HARBOR               56      70/ 10/ 12 1010.8S
MICHIGAN CITY              59      60/  9/ 10   N/A
MICHIGAN CITY 6N           54 53   60/  8/ 10   N/A           2/ 3
ST. JOSEPH                 59 57  120/  8/ 12 1010.7F         1/ 3
$$

ILZ025>027-034>036-040-047-049-050-058-095>099-270600-
WEST-CENTRAL ILLINOIS

CITY           SKY/WX    TMP DP  RH WIND       PRES   REMARKS
QUINCY         CLEAR     63  61  93 NE6       29.86R
GALESBURG*     PTCLDY    59  59  99 N7        29.86S FOG
MACOMB*        CLEAR     60  59  97 N3        29.88S FOG
JACKSONVILLE*  CLEAR     66  64  92 NW3       29.85S
PITTSFIELD*    CLEAR     67  65  90 CALM      29.87S
$$

ILZ028>032-037-038-041>044-048-051>054-059>061-270600-
CENTRAL ILLINOIS

CITY           SKY/WX    TMP DP  RH WIND       PRES   REMARKS
PONTIAC        CLOUDY    60  60  99 NE8       29.84S FOG
BLOOMINGTON    CLOUDY    65  63  93 NW6       29.85S
DECATUR        MOCLDY    68  64  87 NE3       29.83R
PEORIA         CLEAR     62  62 100 CALM      29.85R FOG
LACON*         CLOUDY    60  60 100 CALM      29.84R FOG
LINCOLN*       MOCLDY    68  67  96 CALM      29.84S
SPRINGFIELD    PTCLDY    70  67  90 NW6       29.84S
TAYLORVILLE    CLOUDY    71  67  87 NW7       29.84R
$$

ILZ033-039-045-046-055>057-062-063-270600-
EAST-CENTRAL ILLINOIS

CITY           SKY/WX    TMP DP  RH WIND       PRES   REMARKS
CHAMPAIGN      MOCLDY    70  66  87 SW7       29.82R
RANTOUL*       CLOUDY    67  66  98 NW7       29.82R
MATTOON        MOCLDY    70  67  90 SW8       29.82R
$$

ILZ079-100>102-270600-
SOUTHWEST ILLINOIS

CITY           SKY/WX    TMP DP  RH WIND       PRES   REMARKS
ALTON          MOCLDY    71  67  88 NW7       29.85R
BELLEVILLE     CLEAR     69  66  89 SW5       29.85S
CAHOKIA*       CLEAR     73  66  78 SW6       29.84R
SPARTA*        CLOUDY    70  67  89 SW3       29.87S
$$

ILZ064>066-069>071-074>076-080>082-084>086-088>090-092>094-270600-
SOUTH-CENTRAL ILLINOIS

CITY           SKY/WX    TMP DP  RH WIND       PRES   REMARKS
CARBONDALE     CLOUDY    71  69  93 SW7       29.86S
CAIRO*         CLOUDY    72  69  92 CALM      29.87S
EFFINGHAM*     PTCLDY    71  68  92 SW8       29.85R
MARION         CLOUDY    72  72 100 SW6       29.87F
MT. VERNON       N/A     70  67  90 SW6       29.86R
CENTRALIA*     PTCLDY    70  68  92 SW7       29.84S
SALEM*         MOCLDY    71  66  84 SW7       29.85S
$$

ILZ067-068-072-073-078-083-087-091-270600-
SOUTHEAST ILLINOIS

CITY           SKY/WX    TMP DP  RH WIND       PRES   REMARKS
LAWRENCEVILLE  CLOUDY    72  67  84 SW7       29.84S
FLORA*         CLOUDY    71  67  88 SW6       29.85S
FAIRFIELD*     PTCLDY    70  68  93 SW3       29.84S
HARRISBURG*    CLOUDY    71  68  92 SW5       29.87S
ROBINSON*      PTCLDY    70  65  86 SW3       29.84S
CARMI*         MOCLDY    70  68  93 S5        29.85F
$$

ABBREVIATIONS USED IN REMARKS
   TC - TEMPERATURE IN CELSIUS
  WCI - WIND CHILL INDEX
   HX - HEAT INDEX
  VSB - VISIBILITY
$$





USA.gov is the U.S. government's official web portal to all federal, state and local government web resources and services.